TimeAKDT,TemperatureF,Dew PointF,Humidity,Sea Level PressureIn,VisibilityMPH,Wind Direction,Wind SpeedMPH,Gust SpeedMPH,PrecipitationIn,Events,Conditions,WindDirDegrees,DateUTC
12:53 AM,30.0,15.1,54,29.84,10.0,NNE,8.1,-,N/A,,Scattered Clouds,30,2012-10-19 08:53:00
1:53 AM,26.1,16.0,66,29.84,10.0,Calm,Calm,-,N/A,,Scattered Clouds,0,2012-10-19 09:53:00
2:53 AM,28.9,14.0,54,29.84,10.0,North,6.9,-,N/A,,Scattered Clouds,360,2012-10-19 10:53:00
3:53 AM,24.1,15.1,69,29.85,10.0,Calm,Calm,-,N/A,,Clear,0,2012-10-19 11:53:00
4:53 AM,26.1,14.0,60,29.87,10.0,Variable,5.8,-,N/A,,Clear,0,2012-10-19 12:53:00
5:53 AM,26.1,14.0,60,29.88,10.0,Variable,3.5,-,N/A,,Clear,0,2012-10-19 13:53:00
6:53 AM,24.1,15.1,69,29.90,10.0,ENE,3.5,-,N/A,,Clear,70,2012-10-19 14:53:00
7:53 AM,21.9,15.1,75,29.91,10.0,Calm,Calm,-,N/A,,Partly Cloudy,0,2012-10-19 15:53:00
8:53 AM,21.0,16.0,81,29.93,10.0,East,3.5,-,N/A,,Scattered Clouds,80,2012-10-19 16:53:00
9:53 AM,28.9,15.1,56,29.94,10.0,North,6.9,-,N/A,,Scattered Clouds,10,2012-10-19 17:53:00
10:53 AM,30.0,16.0,56,29.95,10.0,East,3.5,-,N/A,,Scattered Clouds,100,2012-10-19 18:53:00
11:53 AM,32.0,15.1,50,29.97,10.0,Variable,4.6,-,N/A,,Partly Cloudy,0,2012-10-19 19:53:00
12:53 PM,34.0,17.1,50,29.97,10.0,NE,4.6,-,N/A,,Partly Cloudy,50,2012-10-19 20:53:00
1:53 PM,35.1,16.0,46,29.97,10.0,Calm,Calm,-,N/A,,Clear,0,2012-10-19 21:53:00
2:53 PM,35.1,19.0,52,29.97,10.0,South,4.6,-,N/A,,Partly Cloudy,170,2012-10-19 22:53:00
3:53 PM,36.0,19.0,50,29.97,10.0,SSE,6.9,-,N/A,,Partly Cloudy,160,2012-10-19 23:53:00
4:53 PM,35.1,21.0,57,29.98,10.0,South,8.1,-,N/A,,Clear,170,2012-10-20 00:53:00
5:53 PM,34.0,19.9,56,29.99,10.0,South,6.9,-,N/A,,Clear,180,2012-10-20 01:53:00
6:53 PM,33.1,19.0,56,30.00,10.0,Calm,Calm,-,N/A,,Clear,0,2012-10-20 02:53:00
7:53 PM,34.0,15.1,46,30.02,10.0,North,5.8,-,N/A,,Partly Cloudy,10,2012-10-20 03:53:00
8:53 PM,34.0,17.1,50,30.04,10.0,NNW,12.7,-,N/A,,Clear,340,2012-10-20 04:53:00
9:53 PM,33.1,17.1,52,30.05,10.0,North,16.1,23.0,N/A,,Clear,350,2012-10-20 05:53:00
10:53 PM,33.1,15.1,48,30.07,10.0,North,18.4,24.2,N/A,,Clear,350,2012-10-20 06:53:00
11:53 PM,32.0,15.1,50,30.08,10.0,NNW,13.8,21.9,N/A,,Clear,340,2012-10-20 07:53:00